"Pseudo-MPEC" for 038001s

Created 2016 Sep 29 11:35:27 UT using Find_Orb

Astrometry:
     038001s tC2016 09 29.02165 21 27 42.69 +02 33 36.1          14.6 R      Y00
     038001s tC2016 09 29.02268 21 28 09.94 +02 37 55.4          14.0 R      Y00
     038001s tC2016 09 29.02366 21 28 35.83 +02 42 00.8          14.3 R      Y00
     038001s tC2016 09 29.08781 21 58 03.88 +07 16 57.3          14.1 R      Y00
     038001s tC2016 09 29.08893 21 58 35.98 +07 21 48.4          14.2 R      Y00
     038001s tC2016 09 29.09045 21 59 19.47 +07 28 22.5          14.7 R      Y00
     038001s tC2016 09 29.12086 22 14 27.71 +09 42 32.9          14.1 R      Y00
     038001s tC2016 09 29.12112 22 14 35.17 +09 43 37.5          13.6 R      Y00
     038001s tC2016 09 29.12142 22 14 44.27 +09 44 56.3          13.1 R      Y00
     038001s tC2016 09 29.12167 22 14 52.20 +09 46 03.9          13.3 R      Y00
     038001s tC2016 09 29.12199 22 15 02.27 +09 47 31.7          13.7 R      Y00
     038001s tC2016 09 29.12349 22 15 48.53 +09 54 11.5          14.0 R      Y00

Station data:
(Y00) SONEAR Observatory, Oliveira (S20.71510 W44.78496)  Brazil.   Observers
    C. Jacques, E. Pimentel, J. Barros.  Measurer C. Jacques.  0.28-m f/2.2
    astrograph + CCD.

Orbital elements:  038001s
   Perigee 2016 Sep 29.492454 +/- 0.000822 TT = 11:49:08 (JD 2457660.992454)
Epoch 2016 Sep 29.0 TT = JDT 2457660.5                        Find_Orb
M 185.464437 +/- 0.26               (J2000 equatorial)
n 354.420021298 +/- 0.811           Peri.  174.953701 +/- 0.10
a 42683.30187 +/- 65.1              Node   322.285386 +/- 0.019
e   0.45918202 +/- 0.00101          Incl.   25.151253 +/- 0.0035
P1462.64m/1.016d           H 30.2   G  0.15   U 12.6  
q 23083.89668 +/- 77.3    Q 62282.70705 +/- 55
From 12 observations 2016 Sept. 29 (2.4 hr); mean residual 2".795
Residuals in arcseconds: 
160929 Y00 3.05+ 1.81+    160929 Y00 1.17+ .609+    160929 Y00 4.02- 2.08-    
160929 Y00 .155+ .410+    160929 Y00 5.38- 3.17-    160929 Y00 .953- 1.33-    
160929 Y00 3.40- 2.34-    160929 Y00 6.65+ 4.23+    160929 Y00 1.68+ .877+    
160929 Y00 4.05+ 2.44+    160929 Y00 1.64- .670-    160929 Y00 1.39- .802-    

Ephemerides (geocentric):
Date (UTC) HH   RA              Dec         delta   r     elong  mag " sig PA
---- -- -- --  ------------   ------------  ------ ------ -----  --- ---- ---
2016 09 29 00  21 19 32.110   -01 07 39.56   62241 1.0020 134.2 15.0  7.5  33
2016 09 29 01  21 42 02.380   +01 30 44.27   61696 1.0020 139.9 14.8  3.5 122
2016 09 29 02  22 05 14.133   +04 12 39.72   60534 1.0021 145.7 14.6  4.0  91
2016 09 29 03  22 29 46.076   +06 59 52.43   58747 1.0021 151.5 14.4  1.6  48
2016 09 29 04  22 56 27.532   +09 54 08.74   56322 1.0020 157.3 14.1   13  70
2016 09 29 05  23 26 26.980   +12 56 59.47   53241 1.0020 162.5 13.8   35  72
2016 09 29 06  00 01 26.854   +16 08 50.34   49493 1.0020 165.3 13.6   69  74
2016 09 29 07  00 44 10.616   +19 26 37.08   45073 1.0019 162.3 13.5  120  76
2016 09 29 08  01 39 12.201   +22 36 37.47   40019 1.0019 152.8 13.5  196  81
2016 09 29 09  02 54 11.125   +24 53 27.62   34477 1.0018 137.4 13.6  312  88
2016 09 29 10  04 39 57.028   +24 05 36.89   28893 1.0017 114.7 13.9  476  99
2016 09 29 11  07 01 51.003   +15 42 37.29   24439 1.0016  81.6 14.8  625 111
2016 09 29 12  09 43 10.369   -01 39 07.01   23170 1.0015  40.2 17??  520 115
2016 09 29 13  12 16 03.440   -17 21 28.08   25958 1.0014  14.9 24??  168 107
2016 09 29 14  14 20 41.988   -24 09 59.86   31072 1.0014  35.4 19??  107 102
2016 09 29 15  15 52 52.177   -25 01 44.10   36728 1.0014  54.9 17??  256  90
2016 09 29 16  17 00 11.458   -23 24 15.40   42106 1.0015  69.6 16.6  334  82
2016 09 29 17  17 51 13.081   -20 54 24.82   46916 1.0015  81.2 16.2  379  77
2016 09 29 18  18 31 49.656   -18 09 19.06   51069 1.0015  90.8 16.0  407  74
2016 09 29 19  19 05 39.708   -15 22 22.26   54549 1.0016  99.0 15.8  426  71
2016 09 29 20  19 34 59.635   -12 37 56.28   57365 1.0016 106.4 15.6  440  69
2016 09 29 21  20 01 18.380   -09 56 52.09   59533 1.0017 113.1 15.5  453  68
2016 09 29 22  20 25 37.478   -07 18 36.45   61068 1.0017 119.3 15.4  464  67
2016 09 29 23  20 48 42.623   -04 42 01.43   61981 1.0017 125.3 15.2  476  66
2016 09 30 00  21 11 10.725   -02 05 43.75   62280 1.0017 131.1 15.1  490  65
2016 09 30 01  21 33 34.670   +00 31 48.22   61966 1.0017 136.9 14.9  506  65
2016 09 30 02  21 56 27.124   +03 12 12.52   61039 1.0018 142.6 14.7  525  65
2016 09 30 03  22 20 24.320   +05 57 12.91   59490 1.0018 148.5 14.5  550  66
2016 09 30 04  22 46 10.811   +08 48 36.23   57307 1.0018 154.4 14.2  583  66
2016 09 30 05  23 14 46.571   +11 48 01.97   54476 1.0017 160.1 14.0  629  67
2016 09 30 06  23 47 38.912   +14 56 29.28   50982 1.0017 164.6 13.7  693  69
2016 09 30 07  00 27 03.953   +18 12 40.04   46815 1.0017 164.7 13.5  789  72
2016 09 30 08  01 16 46.218   +21 28 14.41   41994 1.0016 157.9 13.5  939  76
2016 09 30 09  02 23 05.780   +24 13 47.30   36608 1.0016 144.9 13.5 1189  83
2016 09 30 10  03 55 56.907   +24 59 24.47   30956 1.0015 125.3 13.7 1622  92
2016 09 30 11  06 04 42.740   +20 03 31.46   25873 1.0013  96.4 14.3 2327 105
2016 09 30 12  08 41 55.055   +05 28 09.27   23161 1.0012  57.0 16?? 3024 114
2016 09 30 13  11 20 50.778   -12 24 43.22   24513 1.0011  19.1 22?? 2927 112
2016 09 30 14  13 37 35.407   -22 32 17.28   29007 1.0011  25.8 20?? 2326 102
2016 09 30 15  15 21 29.210   -25 07 52.63   34596 1.0011  47.2 18?? 1832  91
2016 09 30 16  16 37 05.302   -24 10 09.72   40130 1.0011  63.5 16.9 1515  83
2016 09 30 17  17 33 26.319   -21 53 28.71   45170 1.0012  76.1 16.4 1316  78
2016 09 30 18  18 17 27.867   -19 11 38.59   49574 1.0012  86.4 16.1 1188  74
2016 09 30 19  18 53 32.432   -16 24 28.27   53307 1.0013  95.1 15.9 1103  71
2016 09 30 20  19 24 22.372   -13 38 46.78   56372 1.0013 102.7 15.7 1047  69
2016 09 30 21  19 51 41.580   -10 56 22.86   58783 1.0013 109.6 15.6 1011  68
2016 09 30 22  20 16 40.253   -08 17 06.48   60554 1.0014 116.0 15.5  990  67
2016 09 30 23  20 40 09.074   -05 39 59.38   61701 1.0014 122.1 15.3  983  66
2016 10 01 00  21 02 47.636   -03 03 42.79   62231 1.0014 128.0 15.2  987  65
2016 10 01 01  21 25 09.886   -00 26 47.80   62148 1.0014 133.8 15.0 1003  65
2016 10 01 02  21 47 48.164   +02 12 21.27   61453 1.0015 139.5 14.8 1033  65
2016 10 01 03  22 11 16.896   +04 55 26.06   60140 1.0015 145.4 14.6 1079  65
2016 10 01 04  22 36 16.856   +07 44 12.66   58198 1.0015 151.3 14.4 1145  66
2016 10 01 05  23 03 41.168   +10 40 25.16   55614 1.0015 157.3 14.1 1240  67
2016 10 01 06  23 34 45.014   +13 45 23.78   52372 1.0014 162.7 13.8 1377  69
2016 10 01 07  00 11 22.728   +16 58 59.96   48460 1.0014 165.5 13.5 1580  71
2016 10 01 08  00 56 39.253   +20 16 26.57   43881 1.0014 161.9 13.4 1889  75
2016 10 01 09  01 55 46.424   +23 18 57.20   38691 1.0013 151.3 13.5 2387  80
2016 10 01 10  03 17 17.585   +25 06 33.99   33083 1.0012 134.5 13.6 3223  89
2016 10 01 11  05 12 01.113   +22 54 26.19   27635 1.0011 109.5 14.0 4602 101
2016 10 01 12  07 40 58.791   +12 01 11.65   23767 1.0010  73.7 15.1 6278 112
2016 10 01 13  10 22 27.564   -06 12 04.86   23531 1.0009  32.2 19?? 6567 114
2016 10 01 14  12 49 40.102   -19 49 25.08   27092 1.0008  17.0 23?? 5181 106
2016 10 01 15  14 46 03.591   -24 45 14.23   32456 1.0008  38.7 18?? 3823  95
2016 10 01 16  16 11 16.399   -24 45 42.87   38086 1.0008  56.8 17?? 2947  86
2016 10 01 17  17 13 55.375   -22 49 22.59   43336 1.0009  70.7 16.6 2410  79
2016 10 01 18  18 01 58.433   -20 13 26.16   47987 1.0009  81.7 16.2 2070  75
2016 10 01 19  18 40 40.085   -17 26 56.45   51973 1.0010  90.9 16.0 1848  72
2016 10 01 20  19 13 14.509   -14 40 13.37   55288 1.0010  98.9 15.8 1700  70
2016 10 01 21  19 41 43.980   -11 56 27.60   57943 1.0010 106.1 15.7 1601  68
2016 10 01 22  20 07 29.316   -09 16 01.78   59953 1.0011 112.7 15.5 1537  67
2016 10 01 23  20 31 27.352   -06 38 11.07   61334 1.0011 118.9 15.4 1501  66
2016 10 02 00  20 54 21.124   -04 01 42.53   62095 1.0011 124.8 15.3 1489  65
2016 10 02 01  21 16 46.198   -01 25 10.42   62243 1.0011 130.7 15.1 1498  65
2016 10 02 02  21 39 15.104   +01 12 58.54   61779 1.0012 136.4 14.9 1531  65
2016 10 02 03  22 02 21.056   +03 54 23.76   60700 1.0012 142.3 14.7 1589  65
2016 10 02 04  22 26 41.880   +06 40 49.88   58996 1.0012 148.2 14.5 1678  66
2016 10 02 05  22 53 05.195   +09 34 02.90   56656 1.0012 154.3 14.2 1809  67
2016 10 02 06  23 22 36.418   +12 35 35.95   53664 1.0012 160.2 13.9 1999  68
2016 10 02 07  23 56 52.474   +15 46 05.77   50006 1.0011 164.8 13.6 2278  70